Location: Unspecified
(0.0000°N, 0.0000°E)
Time: 14:43:40
(UTC+00:00)

Vanguard 2 Rocket - Pass Details

Date: 16 October 2022
Orbit: 553 x 3312 km, 32.9° (Epoch: 20 September)

Event Time Altitude Azimuth Distance (km) Brightness Sun altitude
Rises 13:27:39 0° 219° (SW) 4,405 10.7 63.0°
Reaches altitude 10° 13:30:16 10° 213° (SSW) 3,731 10.5 62.4°
Maximum altitude 13:40:16 48° 140° (SE) 2,733 9.9 60.1°
Drops below altitude 10° 13:56:38 10° 71° (ENE) 5,950 10.8 56.1°
Sets 14:02:05 0° 66° (ENE) 7,178 11.1 54.8°
